Lapse_Rate
7.6 7.6 7.3 7.6 7.7 7.4 7.3 7.3 7.1 6.9 6.8 6.0 6.0 6.6 6.6 6.4 6.5 6.5 6.5 6.4 6.5 6.4 6.3 5.9 5.8 5.7 5.6 5.3 5.3 5.4 5.4 5.5 5.5 5.8 5.5 5.4 5.5 5.6 5.5 5.2 5.3 5.3 5.2
7.6 7.2 6.8 6.7 7.2 7.1 6.9 6.7 6.1 6.2 6.6 6.5 5.9 6.0 6.3 6.6 6.7 6.6 6.6 6.8 6.7 6.5 6.2 5.9 5.8 5.6 5.7 5.5 5.4 5.7 5.5 5.6 5.7 5.8 5.5 5.6 5.6 5.6 5.5 5.3 5.2 5.0 5.0
7.6 7.5 7.2 7.1 7.3 7.3 7.3 6.8 5.9 6.4 6.8 6.7 6.7 6.3 6.5 6.6 6.8 6.7 6.7 6.9 6.6 6.3 6.1 5.8 6.0 5.6 5.4 5.4 5.5 5.8 5.6 6.0 5.9 5.5 5.6 5.5 5.6 5.5 5.3 5.1 4.9 4.8 4.7
7.9 7.5 7.3 7.4 7.4 7.4 7.1 6.8 6.3 6.9 7.2 7.0 6.9 6.7 6.6 6.7 6.9 6.9 6.8 6.7 6.5 6.1 5.8 5.8 5.8 5.5 5.7 5.7 5.7 5.7 5.7 5.7 5.4 5.4 5.4 5.3 5.2 5.1 5.0 4.9 4.8 4.9 4.8
7.7 7.7 7.6 7.5 7.2 7.2 7.2 7.2 7.1 7.2 7.1 6.9 7.0 7.2 7.2 7.0 7.0 6.9 6.9 6.8 6.6 6.3 6.1 5.5 5.5 5.4 5.4 5.5 5.5 5.5 5.2 5.2 5.3 5.2 5.2 5.1 5.1 5.0 4.9 4.8 4.7 4.8 4.9
7.7 7.7 7.7 7.5 7.4 7.1 7.0 7.4 7.4 7.5 7.2 6.9 7.1 7.4 7.0 7.1 7.2 7.2 7.0 6.8 6.6 6.0 5.9 5.6 5.8 5.4 5.3 5.8 5.8 5.1 5.2 5.2 5.1 5.0 4.9 4.8 4.9 4.9 4.8 4.7 4.6 4.6 4.6
7.7 7.4 7.4 7.4 7.4 7.3 7.1 7.4 7.5 7.2 7.2 7.2 7.3 7.5 7.3 7.2 7.0 6.9 6.7 6.5 6.4 6.1 6.3 6.0 5.9 5.2 5.5 5.5 5.2 5.1 5.0 4.9 4.6 4.4 4.5 4.7 4.8 4.6 4.5 4.6 4.6 4.8 4.9
7.5 7.1 7.1 7.1 7.1 6.9 6.9 7.0 7.1 7.1 7.1 7.3 7.3 7.3 7.1 7.0 6.9 6.8 6.6 6.5 6.4 6.2 6.0 5.7 5.4 5.2 5.3 5.0 4.8 4.7 4.7 4.5 4.3 4.2 4.2 4.3 4.5 4.5 4.6 4.7 4.9 4.9 5.1
7.2 6.9 6.8 6.9 6.9 6.9 7.0 6.9 7.1 7.2 7.2 7.1 6.9 6.9 7.1 7.0 6.8 6.6 6.5 6.3 6.1 5.7 5.4 5.2 5.4 5.3 5.1 4.8 4.7 4.6 4.5 4.3 4.3 4.3 4.4 4.6 4.7 4.7 4.9 5.0 5.2 5.0 5.1
7.1 6.9 6.8 6.8 6.8 6.8 6.8 6.8 6.8 6.7 6.6 6.8 6.9 7.0 6.9 6.7 6.5 6.4 6.1 5.7 5.5 5.5 5.5 5.3 5.1 4.9 4.9 4.8 4.5 4.4 4.3 4.3 4.2 4.3 4.5 4.8 4.8 5.0 5.2 5.3 5.1 4.9 5.0
7.1 7.0 6.8 6.7 6.7 6.8 6.8 6.6 6.6 6.6 6.8 6.9 6.9 6.7 6.6 6.3 6.2 6.1 5.8 5.5 5.4 5.2 5.1 5.0 4.9 4.6 4.4 4.2 4.0 3.9 3.8 4.0 4.2 4.3 4.5 4.7 4.8 5.0 5.2 5.2 5.2 5.3 5.4
7.2 7.1 6.9 6.8 6.7 6.6 6.6 6.5 6.6 6.6 6.7 6.7 6.5 6.4 6.2 6.0 5.7 5.5 5.3 5.2 5.0 4.8 4.6 4.4 4.3 4.1 3.9 3.8 3.6 3.3 3.6 3.9 3.9 3.9 4.2 4.6 4.7 5.0 5.2 5.2 5.6 5.8 5.8
7.2 7.0 6.9 6.8 6.6 6.4 6.4 6.5 6.5 6.4 6.3 6.2 6.1 5.9 5.6 5.4 5.2 4.9 4.8 4.6 4.4 4.1 3.7 3.6 3.6 3.3 3.3 3.3 3.3 3.2 3.8 3.7 3.7 4.1 4.3 4.6 4.8 4.8 5.0 5.3 5.7 6.0 6.1
7.3 7.2 7.1 7.0 6.8 6.7 6.7 6.6 6.6 6.4 6.3 6.1 5.8 5.4 5.1 4.8 4.6 4.5 4.3 4.0 3.6 2.8 2.8 2.8 2.9 3.2 3.4 3.0 3.1 3.5 3.5 3.8 4.1 4.2 4.4 4.6 4.6 4.8 5.2 5.6 6.0 6.1 6.1
7.4 7.2 7.1 7.1 6.9 6.8 6.6 6.5 6.2 6.1 5.9 5.7 5.5 5.3 5.2 5.0 4.8 4.6 3.7 3.0 2.5 2.5 3.2 3.2 3.3 3.4 2.8 2.8 3.2 3.4 3.7 4.1 4.2 4.4 4.5 4.4 4.6 5.2 5.7 6.1 6.2 6.1 6.0
7.3 7.1 6.9 6.6 6.5 6.5 6.3 5.9 5.8 5.7 5.6 5.5 5.4 5.4 5.2 4.9 4.2 3.3 3.1 3.4 3.2 2.9 2.9 3.2 3.2 3.0 3.1 3.3 3.6 3.9 4.2 4.3 4.5 4.5 4.4 4.6 5.1 5.7 6.0 6.2 6.0 6.0 6.2
7.2 6.8 6.2 5.9 5.9 5.8 5.7 5.5 5.3 5.1 5.2 5.1 5.1 4.7 4.4 4.3 3.7 3.4 3.6 3.3 3.2 3.2 3.2 3.4 3.3 3.4 3.7 3.9 4.0 4.2 4.4 4.5 4.5 4.4 4.6 5.0 5.6 5.8 5.8 5.9 6.0 6.1 6.4
6.8 6.7 6.4 5.7 5.5 5.4 5.3 5.2 5.1 5.1 5.0 4.8 4.3 3.8 3.7 3.6 3.4 3.2 2.9 2.7 2.8 3.0 3.3 3.6 3.7 3.7 3.6 3.9 4.0 4.2 4.4 4.5 4.4 4.6 4.9 5.4 5.6 5.6 5.8 5.7 5.8 5.9 6.5
5.7 5.7 5.6 5.5 5.4 5.1 4.9 4.9 4.6 4.3 4.1 4.0 3.8 3.6 3.3 3.0 2.9 2.8 2.8 2.9 3.1 3.4 3.4 3.6 3.6 3.7 3.8 4.0 4.2 4.4 4.5 4.4 4.4 4.9 5.2 5.3 5.4 5.5 5.5 5.6 5.8 5.9 6.6
5.7 5.5 5.1 4.9 5.1 4.7 4.4 4.0 3.8 3.6 3.5 3.3 3.1 3.0 2.8 2.8 2.8 2.9 3.2 3.3 3.5 3.7 3.8 3.9 4.0 4.0 4.2 4.2 4.3 4.3 4.1 4.4 4.7 4.9 5.1 5.2 5.2 5.3 5.4 5.6 6.0 6.3 6.8
5.3 4.9 4.8 4.6 4.5 4.3 3.7 3.5 3.3 3.3 3.0 2.9 2.7 2.7 2.8 2.8 3.0 3.2 3.4 3.7 3.8 3.8 3.8 3.8 3.9 3.9 3.9 4.0 3.9 3.9 4.2 4.5 4.7 5.0 5.0 5.1 5.3 5.4 5.4 5.7 6.4 6.7 7.1
4.5 4.4 4.2 3.8 3.5 3.2 3.1 3.0 2.6 2.5 2.5 2.5 2.5 2.7 2.9 3.1 3.2 3.4 3.4 3.4 3.5 3.6 3.5 3.6 3.6 3.7 3.6 3.6 3.9 4.1 4.2 4.6 4.7 4.8 5.0 5.1 5.3 5.4 5.6 6.1 6.6 6.9 7.1
4.3 4.1 3.8 3.4 3.2 3.0 2.8 2.7 2.5 2.5 2.5 2.6 2.7 3.0 3.3 3.4 3.3 3.2 3.2 3.2 3.2 3.2 3.3 3.3 3.1 3.2 3.5 3.6 3.8 4.1 4.4 4.5 4.6 4.7 5.0 5.2 5.3 5.5 6.0 6.4 6.8 6.9 7.1
3.4 3.3 3.1 3.0 3.0 2.9 2.7 2.7 2.9 3.0 3.1 3.3 3.4 3.3 3.3 3.3 3.3 3.2 3.1 3.0 2.9 2.9 2.9 3.0 3.2 3.4 3.5 3.7 3.8 3.9 4.2 4.4 4.6 4.8 5.0 5.4 5.8 6.0 6.4 6.6 6.7 6.9 7.0
3.2 3.2 3.2 3.0 3.0 3.1 3.3 3.4 3.4 3.4 3.4 3.4 3.3 3.3 3.1 3.0 2.8 2.8 2.8 2.7 2.7 2.9 3.0 3.0 3.1 3.2 3.3 3.6 3.8 4.0 4.2 4.3 4.6 4.9 5.4 5.8 6.2 6.3 6.4 6.5 6.5 6.8 6.9
3.2 3.3 3.4 3.5 3.6 3.5 3.4 3.4 3.4 3.4 3.2 3.1 3.0 3.0 2.9 2.7 2.7 2.7 2.7 2.7 2.7 2.6 2.7 2.7 2.8 3.0 3.4 3.7 3.8 3.9 4.2 4.5 5.0 5.3 5.9 6.2 6.3 6.2 6.2 6.3 6.4 6.6 6.8
Wind_Speed
17 17 19 19 20 16 13 12 9 8 11 10 9 9 8 6 6 6 6 7 8 8 6 8 7 8 5 3 3 2 2 3 3 2 2 3 3 6 13 17 19 18 19
19 19 21 17 16 15 14 14 11 13 11 12 14 10 8 8 7 8 8 9 10 10 10 9 9 6 5 4 3 2 2 2 3 4 4 3 5 5 9 7 15 14 17
20 19 18 18 16 16 15 14 14 15 13 10 9 9 9 9 10 9 10 10 10 10 10 9 9 8 6 4 3 1 1 2 2 2 3 2 3 3 4 4 5 10 15
21 21 20 18 17 15 15 15 16 13 12 11 10 8 8 8 10 10 8 8 8 9 9 9 8 6 6 5 4 1 1 2 2 2 3 3 3 3 3 4 7 3 6
20 20 21 17 15 14 15 15 11 11 11 10 9 8 8 8 8 10 10 10 10 8 7 7 6 6 6 5 2 1 2 0 1 2 2 2 2 2 3 2 6 9 9
17 20 16 14 13 13 13 10 10 9 9 9 9 10 10 7 12 13 12 10 9 9 8 6 5 7 9 12 9 8 3 1 1 2 2 4 5 5 2 4 7 10 12
14 12 12 13 12 11 8 9 10 10 9 8 9 9 8 6 13 13 11 7 7 6 7 6 6 6 7 5 7 4 2 2 3 2 4 4 5 4 6 9 8 8 11
8 9 9 10 9 9 9 9 8 7 9 9 8 8 7 5 11 12 10 7 7 7 6 6 7 6 6 5 4 3 2 2 3 2 4 6 6 8 7 8 10 11 11
8 9 10 11 11 10 10 9 8 9 7 6 7 7 9 8 13 13 11 8 9 8 6 6 6 6 7 6 3 3 3 4 7 12 15 17 19 20 19 8 8 8 10
8 8 8 9 11 11 10 9 6 8 8 7 7 6 9 8 11 14 12 7 7 5 5 6 9 6 6 5 3 3 3 4 5 7 7 10 13 15 18 11 7 9 9
8 9 8 7 8 9 9 8 9 8 9 9 10 8 10 8 8 13 12 6 6 5 4 3 3 5 5 5 6 3 2 4 5 5 5 5 5 6 7 10 11 9 10
8 8 8 8 6 7 10 8 9 10 10 8 9 8 7 9 12 15 16 12 8 5 4 3 2 4 4 5 4 5 6 3 1 3 4 5 6 6 7 12 17 18 20
10 9 9 9 8 8 9 9 8 8 8 7 7 7 6 6 7 15 15 13 10 5 3 3 3 4 5 4 4 5 4 3 3 4 5 5 6 8 13 11 16 18 22
11 10 9 10 9 8 6 6 7 7 7 7 7 7 6 5 4 3 4 4 6 4 4 3 2 3 4 3 3 4 4 4 5 5 6 6 7 7 8 8 10 10 10
10 9 9 8 10 10 9 6 6 4 6 8 7 8 8 5 4 7 5 3 2 3 3 2 2 2 2 2 2 3 4 4 5 5 6 7 7 8 8 8 8 9 8
11 8 7 8 8 9 10 10 18 16 19 18 16 11 6 13 12 10 7 5 5 7 2 2 2 2 1 1 2 3 3 4 5 6 5 6 7 8 8 9 8 8 9
12 10 8 8 8 8 7 9 11 13 21 20 19 18 16 13 11 8 7 7 6 5 2 3 2 1 1 1 1 2 3 3 6 5 5 5 6 7 9 8 8 9 10
13 14 10 8 8 8 8 7 6 6 7 6 11 11 13 11 9 8 6 5 2 3 3 3 2 2 0 2 2 3 3 3 4 4 4 4 5 5 7 7 8 8 10
11 10 9 9 8 7 6 5 5 5 5 5 6 5 7 11 8 7 6 2 2 2 2 1 2 1 1 2 2 2 2 3 3 3 3 4 4 5 7 7 8 11 12
11 14 10 7 7 6 5 5 5 4 4 3 3 3 2 3 1 1 1 2 2 2 1 1 1 1 1 2 2 2 3 3 3 3 3 3 4 4 6 7 8 8 9
8 9 11 8 7 6 6 6 5 5 4 4 4 4 5 2 1 1 2 2 1 1 1 1 1 1 1 2 3 2 3 3 3 3 4 4 3 5 6 6 7 8 9
8 8 8 7 6 6 5 5 5 4 4 4 3 3 5 2 2 3 3 3 2 3 3 2 1 1 3 3 3 2 3 3 4 4 5 5 6 6 6 7 7 7 8
8 8 8 7 6 6 6 5 4 4 4 4 4 4 4 4 3 4 3 3 3 2 3 3 2 3 9 10 11 9 4 5 5 7 6 6 6 7 7 7 8 8 7
9 8 7 6 6 6 6 6 5 7 5 4 4 3 3 2 2 3 2 2 3 3 4 6 8 8 10 13 13 14 12 11 12 9 10 7 8 8 7 8 8 9 8
7 7 7 6 6 5 6 6 5 4 4 3 3 2 2 2 2 2 2 2 2 3 8 11 12 13 13 14 15 16 14 13 15 17 12 10 9 11 9 8 9 8 9
7 7 6 5 5 5 5 4 4 4 3 3 2 2 2 2 2 2 1 2 2 6 9 12 14 15 16 14 14 13 15 18 19 17 14 10 7 7 7 8 11 8 9
Wind_Direction
211 211 219 220 217 218 223 225 205 192 203 205 220 204 200 182 177 164 160 163 161 152 143 152 158 157 161 144 145 162 215 186 235 286 267 279 275 270 281 281 281 265 255
218 215 218 227 229 226 222 209 179 204 212 207 224 202 191 171 185 191 180 176 167 169 166 162 164 159 165 149 144 179 230 189 183 262 243 252 234 262 263 275 280 274 258
213 219 224 226 222 220 214 208 215 215 211 201 201 189 180 180 177 190 186 177 175 165 162 166 170 166 157 154 154 145 234 303 274 241 282 262 265 284 299 289 277 280 278
209 212 218 220 220 215 210 210 216 221 202 191 190 184 176 181 183 183 170 159 160 159 165 166 161 162 159 174 166 181 281 301 298 289 268 257 246 283 269 284 297 275 284
208 212 217 213 209 210 212 210 208 192 189 181 162 156 162 165 169 166 163 163 156 155 163 148 153 146 165 117 133 112 105 98 316 274 268 255 260 289 278 287 290 296 289
201 207 205 194 190 199 207 187 173 168 163 157 157 157 166 174 165 161 159 159 159 164 158 147 138 117 105 106 101 85 96 106 252 229 241 285 291 291 295 292 297 300 301
194 190 184 180 185 189 165 155 164 168 156 152 151 149 156 152 156 155 136 140 141 148 145 134 115 105 94 104 82 78 41 333 262 264 283 282 289 282 291 295 286 280 282
181 178 174 173 164 163 157 151 135 145 144 143 144 137 137 136 147 134 115 113 99 88 96 107 114 116 83 83 75 14 351 327 303 285 250 261 253 274 274 278 284 286 283
163 167 161 157 154 155 157 149 134 128 124 127 135 141 140 140 134 124 107 100 104 99 93 92 102 95 83 60 65 7 349 340 335 315 304 302 305 303 296 294 283 283 285
150 142 141 146 148 148 140 136 128 130 130 118 99 89 105 110 115 115 116 118 114 109 92 86 86 95 68 42 77 45 358 342 330 319 310 304 297 291 294 280 280 281 281
132 135 136 139 138 132 124 123 132 117 99 86 80 66 69 78 94 109 116 116 125 119 114 107 85 53 36 43 70 71 2 12 333 312 308 302 303 310 301 299 299 292 279
117 117 117 112 110 112 110 107 105 106 105 103 102 86 71 75 85 93 93 96 105 106 106 99 69 32 58 84 72 26 20 5 299 305 311 317 315 311 314 310 300 291 274
111 108 102 90 90 98 111 108 103 107 118 118 110 107 96 76 75 85 87 86 80 90 99 87 58 71 93 80 49 36 31 349 344 336 331 322 318 315 312 316 310 300 304
121 120 113 104 92 81 80 93 114 126 125 128 129 124 118 105 93 79 86 88 96 94 88 72 69 91 79 58 50 35 11 3 345 334 324 321 319 320 324 323 320 325 314
108 103 97 95 96 86 68 75 94 69 135 144 139 140 136 126 122 120 122 118 129 151 128 107 80 63 49 39 36 8 359 351 346 339 326 327 327 324 320 324 319 317 308
115 111 112 111 109 110 107 89 70 88 97 101 113 119 105 118 121 116 117 121 112 129 93 103 85 51 39 12 359 348 343 343 340 327 320 327 323 320 324 321 322 317 314
116 118 112 113 116 117 113 110 106 78 82 89 97 105 111 115 113 124 126 113 108 93 104 106 130 159 203 348 345 334 318 342 327 319 312 321 316 322 324 320 316 318 316
78 80 92 88 91 91 92 96 105 114 116 115 111 119 117 107 83 61 43 111 101 95 132 145 156 162 331 330 331 320 316 328 312 308 299 297 295 315 315 314 313 318 317
82 77 80 83 80 83 87 91 99 107 115 126 128 113 109 91 87 77 87 132 146 137 126 139 134 102 355 327 316 296 272 290 281 283 278 294 289 319 311 308 308 319 309
77 83 80 78 79 78 78 90 95 90 84 84 116 109 93 79 79 89 99 129 122 130 149 155 109 45 323 305 291 249 282 284 284 274 276 277 278 285 292 301 308 314 309
75 71 74 69 65 63 65 66 64 70 78 74 71 64 88 91 126 176 134 129 110 106 104 69 51 347 316 286 294 296 298 290 280 283 290 289 274 290 290 298 297 302 303
67 70 69 69 66 64 68 66 61 66 70 79 78 71 64 54 49 53 60 48 46 55 42 34 15 338 311 304 297 271 270 271 279 277 280 283 288 291 296 294 294 296 299
66 68 67 65 65 64 66 64 62 61 63 57 58 61 56 49 50 54 51 36 35 25 44 22 332 312 317 306 300 280 264 279 281 287 291 289 294 295 291 292 293 294 297
63 63 66 62 58 62 64 61 60 60 65 64 63 65 65 78 80 66 50 5 25 32 358 334 318 299 302 304 304 305 295 280 283 290 311 296 291 291 290 288 287 286 285
59 60 61 58 56 56 59 54 46 43 48 47 31 29 44 52 66 8 345 22 349 327 323 320 313 305 303 304 306 306 306 310 313 311 298 285 282 285 282 281 283 285 283
63 64 64 61 58 60 62 59 47 41 32 13 8 16 25 15 16 358 314 303 292 297 305 312 315 311 309 307 305 306 314 316 310 302 297 287 278 278 280 280 281 284 285